When you browse on this site, cookies collect data to enhance your experience and personalize the content and advertising you see.
Visit our Privacy Policy to learn more. By continuing to use the site, you agree to this use of cookies and data.
  • In Hungary
  • List of Countries
  • For 7 days
  • Water Temperature
  • Satellite Maps
  • Weather Map
  • News
  • Weather Widgets
  • user-avatar
    Login

    Hourly Weather Patmos

    Today, 22 January, Tuesday

    Time Temperature Precipitation Wind Pressure Humidity
    00:00 +14°C° 0 mm 1 mps 760 mmHg 75%
    01:00 +13°C° 0 mm 1 mps 760 mmHg 75%
    02:00 +12°C° 0 mm 0 mps 761 mmHg 74%
    03:00 +12°C° 0 mm 0 mps 760 mmHg 74%
    04:00 +12°C° 0 mm 0 mps 760 mmHg 74%
    05:00 +12°C° 0 mm 0 mps 760 mmHg 74%
    06:00 +13°C° 0 mm 1 mps 760 mmHg 75%
    07:00 +13°C° 0 mm 1 mps 760 mmHg 75%
    08:00 +14°C° 0 mm 1 mps 760 mmHg 78%
    09:00 +14°C° 0 mm 2 mps 760 mmHg 78%
    10:00 +14°C° 0 mm 2 mps 760 mmHg 78%
    11:00 +14°C° 0 mm 2 mps 760 mmHg 78%
    12:00 +13°C° 0 mm 3 mps 760 mmHg 77%
    13:00 +13°C° 0 mm 3 mps 760 mmHg 77%
    14:00 +14°C° 0 mm 4 mps 759 mmHg 76%
    15:00 +14°C° 0 mm 4 mps 759 mmHg 75%
    16:00 +14°C° 0 mm 4 mps 759 mmHg 74%
    17:00 +14°C° 0 mm 5 mps 759 mmHg 73%
    18:00 +15°C° 0.1 mm 5 mps 758 mmHg 73%
    19:00 +15°C° 0.1 mm 6 mps 758 mmHg 73%
    20:00 +15°C° 0.1 mm 6 mps 758 mmHg 73%
    21:00 +15°C° 0.1 mm 7 mps 758 mmHg 73%
    22:00 +15°C° 0.1 mm 8 mps 758 mmHg 74%
    23:00 +15°C° 0.1 mm 9 mps 758 mmHg 75%

    Tomorrow, 23 January, Wednesday

    Time Temperature Precipitation Wind Pressure Humidity
    00:00 +15°C° 0.2 mm 9 mps 758 mmHg 75%
    01:00 +14°C° 0.2 mm 10 mps 758 mmHg 75%
    02:00 +14°C° 0.2 mm 10 mps 757 mmHg 75%
    03:00 +15°C° 0.5 mm 9 mps 757 mmHg 74%
    04:00 +15°C° 0.5 mm 9 mps 757 mmHg 74%
    05:00 +15°C° 0.5 mm 9 mps 756 mmHg 74%
    06:00 +15°C° 0.8 mm 9 mps 756 mmHg 75%
    07:00 +15°C° 0.8 mm 9 mps 756 mmHg 75%
    08:00 +15°C° 0.8 mm 9 mps 756 mmHg 75%
    09:00 +14°C° 1.2 mm 10 mps 756 mmHg 76%
    10:00 +14°C° 1.2 mm 10 mps 756 mmHg 77%
    11:00 +14°C° 1.2 mm 11 mps 756 mmHg 78%
    12:00 +14°C° 1.3 mm 11 mps 756 mmHg 78%
    13:00 +14°C° 1.3 mm 12 mps 755 mmHg 78%
    14:00 +14°C° 1.3 mm 12 mps 754 mmHg 78%
    15:00 +14°C° 1.3 mm 13 mps 754 mmHg 77%
    16:00 +14°C° 1.3 mm 13 mps 753 mmHg 76%
    17:00 +14°C° 1.3 mm 14 mps 753 mmHg 75%
    18:00 +14°C° 0.8 mm 14 mps 752 mmHg 74%
    19:00 +14°C° 0.8 mm 15 mps 752 mmHg 73%
    20:00 +14°C° 0.8 mm 15 mps 751 mmHg 73%
    21:00 +14°C° 0.9 mm 16 mps 751 mmHg 73%
    22:00 +14°C° 0.9 mm 17 mps 750 mmHg 74%
    23:00 +14°C° 0.9 mm 18 mps 750 mmHg 75%

    Day after tomorrow, 24 January, Thursday

    Time Temperature Precipitation Wind Pressure Humidity
    00:00 +14°C° 2 mm 18 mps 749 mmHg 75%
    01:00 +14°C° 2 mm 18 mps 748 mmHg 76%
    02:00 +14°C° 2 mm 18 mps 748 mmHg 76%
    03:00 +14°C° 2.1 mm 19 mps 747 mmHg 76%
    04:00 +14°C° 2.1 mm 19 mps 746 mmHg 75%
    05:00 +14°C° 2.1 mm 20 mps 745 mmHg 74%
    06:00 +14°C° 1 mm 18 mps 744 mmHg 73%
    07:00 +14°C° 1 mm 16 mps 744 mmHg 71%
    08:00 +14°C° 1 mm 14 mps 744 mmHg 70%
    09:00 +14°C° 1.1 mm 14 mps 744 mmHg 72%
    10:00 +14°C° 1.1 mm 14 mps 744 mmHg 74%
    11:00 +14°C° 1.1 mm 13 mps 744 mmHg 76%
    12:00 +14°C° 0.4 mm 13 mps 744 mmHg 76%
    13:00 +14°C° 0.4 mm 13 mps 744 mmHg 75%
    14:00 +13°C° 0.4 mm 13 mps 744 mmHg 75%
    15:00 +14°C° 0.1 mm 13 mps 745 mmHg 72%
    16:00 +14°C° 0.1 mm 13 mps 746 mmHg 70%
    17:00 +14°C° 0.1 mm 14 mps 746 mmHg 67%
    18:00 +14°C° 0 mm 13 mps 747 mmHg 67%
    19:00 +14°C° 0 mm 11 mps 748 mmHg 68%
    20:00 +14°C° 0 mm 10 mps 749 mmHg 68%
    21:00 +14°C° 0.1 mm 10 mps 750 mmHg 68%
    22:00 +14°C° 0.1 mm 10 mps 750 mmHg 69%
    23:00 +14°C° 0.1 mm 10 mps 751 mmHg 69%

    25 January, Friday

    Time Temperature Precipitation Wind Pressure Humidity
    00:00 +14°C° 0.5 mm 10 mps 750 mmHg 70%
    01:00 +14°C° 0.5 mm 10 mps 750 mmHg 70%
    02:00 +14°C° 0.5 mm 11 mps 750 mmHg 70%
    03:00 +14°C° 0.6 mm 11 mps 749 mmHg 69%
    04:00 +14°C° 0.6 mm 12 mps 749 mmHg 68%
    05:00 +14°C° 0.6 mm 13 mps 748 mmHg 67%
    06:00 +15°C° 0.2 mm 14 mps 748 mmHg 66%
    07:00 +15°C° 0.2 mm 15 mps 748 mmHg 65%
    08:00 +15°C° 0.2 mm 16 mps 748 mmHg 64%
    09:00 +15°C° 0.3 mm 17 mps 748 mmHg 65%
    10:00 +15°C° 0.3 mm 18 mps 748 mmHg 65%
    11:00 +15°C° 0.3 mm 18 mps 747 mmHg 65%
    12:00 +14°C° 1.6 mm 18 mps 747 mmHg 69%
    13:00 +14°C° 1.6 mm 17 mps 746 mmHg 72%
    14:00 +13°C° 1.6 mm 17 mps 746 mmHg 76%
    15:00 +13°C° 2.1 mm 16 mps 746 mmHg 71%
    16:00 +14°C° 2.1 mm 15 mps 745 mmHg 66%
    17:00 +14°C° 2.1 mm 15 mps 745 mmHg 61%
    18:00 +14°C° 0.1 mm 14 mps 745 mmHg 60%
    19:00 +14°C° 0.1 mm 14 mps 746 mmHg 60%
    20:00 +14°C° 0.1 mm 13 mps 746 mmHg 60%
    21:00 +14°C° 0.2 mm 13 mps 746 mmHg 60%
    22:00 +14°C° 0.2 mm 13 mps 746 mmHg 60%
    23:00 +14°C° 0.2 mm 13 mps 746 mmHg 61%

    26 January, Saturday

    Time Temperature Precipitation Wind Pressure Humidity
    00:00 +14°C° 0.6 mm 13 mps 745 mmHg 63%
    01:00 +14°C° 0.6 mm 13 mps 745 mmHg 65%
    02:00 +13°C° 0.6 mm 13 mps 745 mmHg 67%
    03:00 +13°C° 0.4 mm 13 mps 745 mmHg 67%
    04:00 +13°C° 0.4 mm 13 mps 744 mmHg 67%
    05:00 +13°C° 0.4 mm 13 mps 744 mmHg 68%
    06:00 +13°C° 0.5 mm 13 mps 744 mmHg 67%
    07:00 +13°C° 0.5 mm 13 mps 745 mmHg 67%
    08:00 +13°C° 0.5 mm 13 mps 745 mmHg 67%
    09:00 +13°C° 0.7 mm 12 mps 745 mmHg 68%
    10:00 +13°C° 0.7 mm 12 mps 746 mmHg 69%
    11:00 +13°C° 0.7 mm 11 mps 747 mmHg 70%
    12:00 +13°C° 0.5 mm 11 mps 747 mmHg 70%
    13:00 +13°C° 0.5 mm 10 mps 747 mmHg 70%
    14:00 +13°C° 0.5 mm 10 mps 747 mmHg 70%
    15:00 +13°C° 0.3 mm 10 mps 747 mmHg 69%
    16:00 +14°C° 0.3 mm 10 mps 747 mmHg 69%
    17:00 +14°C° 0.3 mm 10 mps 747 mmHg 68%
    18:00 +13°C° 0.2 mm 9 mps 748 mmHg 69%
    19:00 +13°C° 0.2 mm 9 mps 748 mmHg 69%
    20:00 +13°C° 0.2 mm 8 mps 748 mmHg 69%
    21:00 +14°C° 1.4 mm 7 mps 748 mmHg 71%
    22:00 +12°C° 1.4 mm 7 mps 748 mmHg 72%
    23:00 +13°C° 1.4 mm 6 mps 749 mmHg 74%

    27 January, Sunday

    Time Temperature Precipitation Wind Pressure Humidity
    00:00 +11°C° 1.6 mm 6 mps 749 mmHg 75%
    01:00 +11°C° 1.6 mm 6 mps 748 mmHg 76%
    02:00 +11°C° 1.6 mm 6 mps 748 mmHg 77%
    03:00 +12°C° 0.7 mm 5 mps 748 mmHg 74%
    04:00 +12°C° 0.7 mm 4 mps 748 mmHg 70%
    05:00 +13°C° 0.7 mm 4 mps 748 mmHg 67%
    06:00 +13°C° 0.2 mm 4 mps 748 mmHg 66%
    07:00 +13°C° 0.2 mm 4 mps 748 mmHg 66%
    08:00 +13°C° 0.2 mm 3 mps 748 mmHg 65%
    09:00 +13°C° 0.5 mm 3 mps 748 mmHg 65%
    10:00 +13°C° 0.5 mm 3 mps 749 mmHg 65%
    11:00 +14°C° 0.5 mm 2 mps 749 mmHg 65%
    12:00 +13°C° 0.1 mm 3 mps 749 mmHg 65%
    13:00 +13°C° 0.1 mm 3 mps 749 mmHg 65%
    14:00 +13°C° 0.1 mm 4 mps 749 mmHg 65%
    15:00 +13°C° 0.3 mm 5 mps 750 mmHg 69%
    16:00 +13°C° 0.3 mm 6 mps 750 mmHg 72%
    17:00 +11°C° 0.3 mm 7 mps 751 mmHg 76%
    18:00 +12°C° 0.2 mm 7 mps 751 mmHg 74%
    19:00 +12°C° 0.2 mm 7 mps 752 mmHg 71%
    20:00 +13°C° 0.2 mm 6 mps 753 mmHg 69%
    21:00 +13°C° 0 mm 5 mps 754 mmHg 67%
    22:00 +13°C° 0 mm 4 mps 754 mmHg 64%
    23:00 +12°C° 0 mm 3 mps 755 mmHg 62%
    Show more